CW3999 Weather Reports


Display with metric or nautical units.
time (UTC)temp
F
wind
direction
speed
MPH
gust
MPH
rain 1hr
in
rain 24hr
in
rain mn
in
humidity
%
barometer
mb
20260506232338 70 226 0.0 4.0 0.00 0.00 0.00 53 1017.9
20260506231829 71 226 0.0 4.0 0.00 0.00 0.00 52 1017.9
20260506231330 71 226 0.0 0.0 0.00 0.00 0.00 53 1018.0
20260506230835 71 226 0.0 0.0 0.00 0.00 0.00 52 1018.0
20260506225830 71 226 0.0 1.0 0.00 0.00 0.00 51 1018.0
20260506225328 70 226 0.0 1.0 0.00 0.00 0.00 51 1018.2
20260506224830 70 226 0.0 0.0 0.00 0.00 0.00 53 1018.2
20260506224331 70 226 0.0 0.0 0.00 0.00 0.00 53 1018.2
20260506223818 71 226 0.0 0.0 0.00 0.00 0.00 53 1018.3
20260506222819 72 226 0.0 0.0 0.00 0.00 0.00 53 1018.4
20260506222319 73 226 0.0 0.0 0.00 0.00 0.00 52 1018.4
20260506221819 73 226 0.0 0.0 0.00 0.00 0.00 52 1018.4
20260506221310 72 226 0.0 0.0 0.00 0.00 0.00 52 1018.4
20260506220804 72 226 0.0 0.0 0.00 0.00 0.00 51 1018.5
20260506220303 71 226 0.0 0.0 0.00 0.00 0.00 52 1018.5
20260506215804 71 226 0.0 0.0 0.00 0.00 0.00 53 1018.5
20260506215306 72 226 0.0 0.0 0.00 0.00 0.00 51 1018.5
20260506214802 71 226 0.0 0.0 0.00 0.00 0.00 53 1018.6
20260506214304 72 227 0.0 0.0 0.00 0.00 0.00 52 1018.5
20260506212803 71 227 0.0 0.0 0.00 0.00 0.00 50 1018.6
20260506212306 71 227 0.0 0.0 0.00 0.00 0.00 49 1018.5
20260506211804 70 227 0.0 0.0 0.00 0.00 0.00 51 1018.6
20260506211302 71 227 0.0 0.0 0.00 0.00 0.00 51 1018.7
20260506210804 71 227 0.0 0.0 0.00 0.00 0.00 46 1018.7
20260506210301 70 227 0.0 0.0 0.00 0.00 0.00 48 1018.8
20260506205802 69 227 0.0 0.0 0.00 0.00 0.00 47 1018.8
20260506205305 69 227 0.0 0.0 0.00 0.00 0.00 48 1018.9
20260506204801 69 227 0.0 0.0 0.00 0.00 0.00 49 1018.9
20260506204302 69 227 0.0 0.0 0.00 0.00 0.00 45 1018.8
20260506203802 69 227 0.0 0.0 0.00 0.00 0.00 50 1018.9
20260506203303 69 227 0.0 0.0 0.00 0.00 0.00 47 1018.9
20260506202804 69 227 0.0 0.0 0.00 0.00 0.00 42 1018.8
20260506202306 68 227 0.0 0.0 0.00 0.00 0.00 42 1018.7
20260506201804 68 230 0.0 0.0 0.00 0.00 0.00 43 1018.7
20260506201304 68 234 0.0 0.0 0.00 0.00 0.00 45 1018.7
20260506200803 68 234 0.0 0.0 0.00 0.00 0.00 44 1018.8
20260506200302 68 234 0.0 0.0 0.00 0.00 0.00 42 1018.9
20260506195803 68 234 0.0 0.0 0.00 0.00 0.00 42 1019.0
20260506195306 67 234 0.0 0.0 0.00 0.00 0.00 34 1019.0
20260506194804 67 234 0.0 0.0 0.00 0.00 0.00 44 1019.1
20260506194303 67 235 0.0 0.0 0.00 0.00 0.00 39 1019.1
20260506193803 67 235 0.0 0.0 0.00 0.00 0.00 36 1019.2
20260506193304 67 235 0.0 0.0 0.00 0.00 0.00 36 1019.2
20260506192305 66 235 0.0 0.0 0.00 0.00 0.00 35 1019.3
20260506191800 66 235 0.0 0.0 0.00 0.00 0.00 32 1019.3
20260506191303 66 235 0.0 0.0 0.00 0.00 0.00 37 1019.3
20260506190802 66 235 0.0 0.0 0.00 0.00 0.00 30 1019.2
20260506190302 65 235 0.0 0.0 0.00 0.00 0.00 34 1019.2
20260506185800 65 235 0.0 0.0 0.00 0.00 0.00 37 1019.2
20260506185302 65 235 0.0 0.0 0.00 0.00 0.00 36 1019.2
20260506184803 65 235 0.0 0.0 0.00 0.00 0.00 36 1019.2
20260506184304 65 235 0.0 0.0 0.00 0.00 0.00 28 1019.2
20260506183802 65 235 0.0 0.0 0.00 0.00 0.00 27 1019.2
20260506183302 65 235 0.0 0.0 0.00 0.00 0.00 24 1019.1
20260506182802 64 235 0.0 0.0 0.00 0.00 0.00 23 1019.1
20260506182301 64 235 0.0 0.0 0.00 0.00 0.00 16 1019.1
20260506181802 64 235 0.0 0.0 0.00 0.00 0.00 16 1019.0
20260506181300 64 235 0.0 0.0 0.00 0.00 0.00 14 1019.1
20260506180804 63 235 0.0 0.0 0.00 0.00 0.00 11 1019.2
20260506180303 63 235 0.0 0.0 0.00 0.00 0.00 10 1019.2
20260506175804 63 235 0.0 0.0 0.00 0.00 0.00 7 1019.2
20260506175306 63 235 0.0 0.0 0.00 0.00 0.00 5 1019.2
20260506174800 63 235 0.0 0.0 0.00 0.00 0.00 100 1019.2
20260506174302 62 235 0.0 0.0 0.00 0.00 0.00 100 1019.2
20260506173802 62 235 0.0 0.0 0.00 0.00 0.00 100 1019.3
20260506173302 62 235 0.0 0.0 0.00 0.00 0.00 100 1019.2
20260506172802 62 235 0.0 0.0 0.00 0.00 0.00 100 1019.1
20260506172307 61 235 0.0 0.0 0.00 0.00 0.00 100 1019.1
20260506171804 60 236 0.0 0.0 0.00 0.00 0.00 100 1019.1
20260506170804 60 236 0.0 0.0 0.00 0.00 0.00 100 1019.0
20260506170304 60 236 0.0 0.0 0.00 0.00 0.00 100 1019.1
20260506165803 60 236 0.0 0.0 0.00 0.00 0.00 100 1019.0
20260506165305 59 236 0.0 0.0 0.00 0.00 0.00 100 1019.0
20260506164803 59 236 0.0 0.0 0.00 0.00 0.00 100 1019.1
20260506164301 58 236 0.0 0.0 0.00 0.00 0.00 100 1019.2
20260506163803 58 235 0.0 0.0 0.00 0.00 0.00 100 1019.2
20260506163302 58 235 0.0 0.0 0.00 0.00 0.00 100 1019.2
20260506162802 58 235 0.0 0.0 0.00 0.00 0.00 100 1019.1
20260506162302 58 235 0.0 0.0 0.00 0.00 0.00 100 1019.2
20260506161802 58 235 0.0 0.0 0.00 0.00 0.00 100 1019.2
20260506160804 58 235 0.0 0.0 0.00 0.00 0.00 100 1019.0
20260506160300 58 235 0.0 0.0 0.00 0.00 0.00 100 1019.0
20260506155801 58 235 0.0 0.0 0.00 0.00 0.00 100 1018.8
20260506155305 57 235 0.0 0.0 0.00 0.00 0.00 100 1018.8
20260506154801 57 235 0.0 0.0 0.00 0.00 0.00 100 1018.9
20260506153802 57 235 0.0 0.0 0.00 0.00 0.00 100 1018.6
20260506153310 57 235 0.0 0.0 0.00 0.00 0.00 100 1018.7
20260506152803 57 235 0.0 0.0 0.00 0.00 0.00 100 1018.5
20260506152305 56 235 0.0 0.0 0.00 0.00 0.00 100 1018.5
20260506151802 56 235 0.0 0.0 0.00 0.00 0.00 100 1018.5
20260506150804 56 235 0.0 0.0 0.00 0.00 0.00 100 1019.0
20260506150305 56 235 0.0 0.0 0.00 0.00 0.00 100 1019.1
20260506145802 56 235 0.0 0.0 0.00 0.00 0.00 100 1019.1
20260506145305 56 235 0.0 0.0 0.00 0.00 0.00 100 1019.2
20260506144303 56 235 0.0 0.0 0.00 0.00 0.00 100 1019.1
20260506143303 56 235 0.0 0.0 0.00 0.00 0.00 100 1019.0
20260506142803 56 235 0.0 0.0 0.00 0.00 0.00 100 1018.9
20260506142305 56 235 0.0 0.0 0.00 0.00 0.00 100 1018.9
20260506141301 55 235 0.0 0.0 0.00 0.00 0.00 100 1018.6
20260506135802 55 235 0.0 0.0 0.00 0.00 0.00 100 1018.1
20260506134801 55 235 0.0 0.0 0.00 0.00 0.00 100 1018.2
20260506133803 55 235 0.0 0.0 0.00 0.00 0.00 100 1018.2
20260506133303 55 235 0.0 0.0 0.00 0.00 0.00 100 1018.1
20260506132807 55 235 0.0 0.0 0.00 0.00 0.00 100 1018.1
20260506132307 55 235 0.0 0.0 0.00 0.00 0.00 100 1018.1
20260506131802 55 235 0.0 0.0 0.00 0.00 0.00 100 1018.1
20260506131303 55 235 0.0 0.0 0.00 0.00 0.00 100 1018.0
20260506130802 55 235 0.0 0.0 0.00 0.00 0.00 100 1018.0
20260506130303 55 235 0.0 0.0 0.00 0.00 0.00 100 1017.8
20260506125803 56 235 0.0 0.0 0.00 0.00 0.00 100 1017.8
20260506125304 56 235 0.0 0.0 0.00 0.00 0.00 100 1017.7
20260506124302 56 235 0.0 0.0 0.00 0.00 0.00 100 1017.6
20260506123304 56 235 0.0 0.0 0.00 0.00 0.00 100 1017.5
20260506122804 56 235 0.0 0.0 0.00 0.00 0.00 100 1017.5
20260506122301 56 235 0.0 0.0 0.00 0.00 0.00 100 1017.5
20260506121803 56 235 0.0 0.0 0.00 0.00 0.00 100 1017.6
20260506121302 56 235 0.0 0.0 0.00 0.00 0.00 100 1017.6
20260506120802 56 235 0.0 0.0 0.00 0.00 0.00 100 1017.6
20260506120302 56 235 0.0 0.0 0.00 0.00 0.00 100 1017.6
20260506115803 56 235 0.0 0.0 0.00 0.00 0.00 100 1017.5
20260506115306 56 235 0.0 0.0 0.00 0.00 0.00 100 1017.6
20260506114804 56 235 0.0 0.0 0.00 0.00 0.00 100 1017.6
20260506114303 56 235 0.0 0.0 0.00 0.00 0.00 100 1017.4
20260506113802 56 235 0.0 0.0 0.00 0.00 0.00 100 1017.4
20260506113303 56 235 0.0 0.0 0.00 0.00 0.00 100 1017.4
20260506112305 56 235 0.0 0.0 0.00 0.00 0.00 100 1017.4
20260506111802 56 235 0.0 0.0 0.00 0.00 0.00 100 1017.3
20260506111303 56 235 0.0 0.0 0.00 0.00 0.00 100 1017.3
20260506110803 56 235 0.0 0.0 0.00 0.00 0.00 100 1017.3
20260506110304 56 235 0.0 0.0 0.00 0.00 0.00 100 1017.2
20260506105803 56 235 0.0 0.0 0.00 0.00 0.00 100 1017.0
20260506105305 57 235 0.0 0.0 0.00 0.00 0.00 100 1017.0
20260506104802 57 235 0.0 0.0 0.00 0.00 0.00 100 1016.9
20260506103735 57 235 0.0 0.0 0.00 0.00 0.00 100 1016.7
20260506103231 57 235 0.0 0.0 0.00 0.00 0.00 100 1016.7
20260506102731 57 235 0.0 0.0 0.00 0.00 0.00 100 1016.6
20260506102230 57 235 0.0 0.0 0.00 0.00 0.00 100 1016.6
20260506101730 57 235 0.0 0.0 0.00 0.00 0.00 100 1016.4
20260506101230 57 235 0.0 0.0 0.00 0.00 0.00 100 1016.4
20260506100730 57 235 0.0 0.0 0.00 0.00 0.00 100 1016.3
20260506100229 57 235 0.0 0.0 0.00 0.00 0.00 100 1016.2
20260506095730 57 235 0.0 0.0 0.00 0.00 0.00 100 1016.2
20260506095230 57 235 0.0 0.0 0.00 0.00 0.00 100 1016.2
20260506094215 57 235 0.0 0.0 0.00 0.00 0.00 100 1016.2
20260506093711 57 235 0.0 0.0 0.00 0.00 0.00 100 1016.1
20260506093207 57 235 0.0 0.0 0.00 0.00 0.00 100 1016.1
20260506092704 57 235 0.0 0.0 0.00 0.00 0.00 100 1016.0
20260506092203 57 235 0.0 0.0 0.00 0.00 0.00 100 1016.0
20260506091703 57 235 0.0 0.0 0.00 0.00 0.00 100 1016.1
20260506091203 58 235 0.0 0.0 0.00 0.00 0.00 100 1016.0
20260506090203 58 235 0.0 0.0 0.00 0.00 0.00 100 1016.0
20260506084702 58 235 0.0 0.0 0.00 0.00 0.00 100 1015.9
20260506084202 58 235 0.0 0.0 0.00 0.00 0.00 100 1015.9
20260506083704 58 235 0.0 0.0 0.00 0.00 0.00 100 1015.9
20260506083204 58 235 0.0 0.0 0.00 0.00 0.00 100 1015.9
20260506082703 58 235 0.0 0.0 0.00 0.00 0.00 100 1015.9
20260506082202 58 235 0.0 0.0 0.00 0.00 0.00 100 1015.9
20260506081647 58 235 0.0 0.0 0.00 0.00 0.00 100 1015.9
20260506080647 58 235 0.0 0.0 0.00 0.00 0.00 100 1015.8
20260506080143 58 235 0.0 0.0 0.00 0.00 0.00 100 1015.8
20260506073130 58 235 0.0 0.0 0.00 0.00 0.00 100 1015.6
20260506072630 58 235 0.0 0.0 0.00 0.00 0.00 100 1015.5
20260506071630 58 235 0.0 0.0 0.00 0.00 0.00 100 1015.4
20260506071130 58 235 0.0 0.0 0.00 0.00 0.00 100 1015.4
20260506070629 58 235 0.0 0.0 0.00 0.00 0.00 100 1015.4
20260506070130 58 235 0.0 0.0 0.00 0.00 0.00 100 1015.4
20260506062103 58 235 0.0 0.0 0.00 0.00 0.00 100 1015.3
20260506061101 58 235 0.0 0.0 0.00 0.00 0.00 100 1015.2
20260506060603 58 235 0.0 0.0 0.00 0.00 0.00 100 1015.2
20260506051101 59 235 0.0 0.0 0.00 0.00 0.00 100 1015.0
20260506050103 59 235 0.0 0.0 0.00 0.00 0.00 100 1014.9
20260506045102 59 235 0.0 0.0 0.00 0.00 0.00 100 1014.9
20260506044602 60 235 0.0 0.0 0.00 0.00 0.00 3 1014.8
20260506043601 60 235 0.0 0.0 0.00 0.00 0.00 12 1014.7
20260506043101 60 235 0.0 0.0 0.00 0.00 0.00 17 1014.7
20260506042100 60 235 0.0 0.0 0.00 0.00 0.00 26 1014.5
20260506041603 61 235 0.0 0.0 0.00 0.00 0.00 28 1014.4
20260506041102 61 235 0.0 0.0 0.00 0.00 0.00 31 1014.3
20260506040603 61 235 0.0 0.0 0.00 0.00 0.00 33 1014.3
20260506040101 61 235 0.0 0.0 0.00 0.00 0.00 33 1014.3
20260506035602 62 235 0.0 0.0 0.00 0.00 0.00 32 1014.2
20260506035102 62 235 0.0 0.0 0.00 0.00 0.00 31 1014.2
20260506034101 62 235 0.0 0.0 0.00 0.00 0.00 28 1014.0
20260506033603 62 235 0.0 0.0 0.00 0.00 0.00 29 1013.9
20260506033104 62 235 0.0 0.0 0.00 0.00 0.00 30 1013.9
20260506032603 63 235 0.0 0.0 0.00 0.00 0.00 33 1013.8
20260506032102 63 235 0.0 0.0 0.00 0.00 0.00 35 1013.8
20260506031602 63 235 0.0 0.0 0.00 0.00 0.00 36 1013.8
20260506031102 64 235 0.0 0.0 0.00 0.00 0.00 37 1013.8
20260506030100 64 235 0.0 0.0 0.00 0.00 0.00 41 1013.7
20260506025103 64 235 0.0 0.0 0.00 0.00 0.00 41 1013.6
20260506024604 64 235 0.0 0.0 0.00 0.00 0.00 40 1013.5
20260506024103 64 235 0.0 0.0 0.00 0.00 0.00 41 1013.5
20260506023603 64 235 0.0 0.0 0.00 0.00 0.00 42 1013.5
20260506022604 64 235 0.0 0.0 0.00 0.00 0.00 41 1013.4
20260506022102 64 235 0.0 0.0 0.00 0.00 0.00 41 1013.4
20260506021604 64 235 0.0 0.0 0.00 0.00 0.00 42 1013.4
20260506020601 64 235 0.0 0.0 0.00 0.00 0.00 43 1013.5
20260506020101 64 235 0.0 0.0 0.00 0.00 0.00 43 1013.5
20260506015602 64 236 0.0 0.0 0.00 0.00 0.00 45 1013.4
20260506014604 65 236 0.0 0.0 0.00 0.00 0.00 44 1013.4
20260506014104 65 236 0.0 0.0 0.00 0.00 0.00 45 1013.3
20260506013602 65 236 0.0 0.0 0.00 0.00 0.00 46 1013.4
20260506012604 65 236 0.0 0.0 0.00 0.00 0.00 47 1013.5
20260506011603 65 236 0.0 0.0 0.00 0.00 0.00 47 1013.5
20260506011103 65 236 0.0 0.0 0.00 0.00 0.00 48 1013.5
20260506010603 66 236 0.0 0.0 0.00 0.00 0.00 50 1013.5
20260506010104 66 236 0.0 0.0 0.00 0.00 0.00 50 1013.5
20260506005103 67 236 0.0 0.0 0.00 0.00 0.00 50 1013.5
20260506004602 67 236 0.0 0.0 0.00 0.00 0.00 47 1013.4
20260506003601 66 236 0.0 0.0 0.00 0.00 0.00 45 1013.5
20260506003101 65 236 0.0 0.0 0.00 0.00 0.00 46 1013.5
20260506002602 65 236 0.0 0.0 0.00 0.00 0.00 44 1013.5
20260506002105 65 236 0.0 0.0 0.00 0.00 0.00 45 1013.6
20260506001604 65 236 0.0 0.0 0.00 0.00 0.00 47 1013.7
20260506001106 65 236 0.0 0.0 0.00 0.00 0.00 46 1013.7
20260506000603 65 236 0.0 0.0 0.00 0.00 0.00 43 1013.7
20260505235601 65 236 0.0 0.0 0.00 0.00 0.00 44 1013.8
20260505235102 65 236 0.0 0.0 0.00 0.00 0.00 44 1013.8
20260505234101 65 236 0.0 0.0 0.00 0.00 0.00 47 1014.0